Weather History for Hastings, NE

Change the Weather History Date:

Tuesday, March 13, 2012

  Actual Average Record
Temperature  
Mean Temperature 59 °F 39 °F  
Max Temperature 79 °F 50 °F 81 °F (2007)
Min Temperature 38 °F 28 °F 0 °F (1975)
Degree Days  
Heating Degree Days 6 26  
Month to date heating degree days 260 371  
Since 1 July heating degree days 4620 5001  
Cooling Degree Days 0 0  
Month to date cooling degree days 0 0  
Year to date cooling degree days 0 0  
Growing Degree Days 8 (Base 50)    
Moisture  
Dew Point 38 °F    
Average Humidity 52    
Maximum Humidity 82    
Minimum Humidity 21    
Precipitation  
Precipitation 0.00 in 0.05 in 0.25 in (1949)
Month to date precipitation 0.32 0.53  
Year to date precipitation 2.13 1.43  
Snow  
Snow 0.00 in 0.20 in 2.50 in (1949)
Month to date snowfall 0.0 2.4  
Since 1 July snowfall 22.5 24.8  
Snow Depth 0.00 in    
Sea Level Pressure  
Sea Level Pressure 29.85 in    
Wind  
Wind Speed 9 mph (SSE)    
Max Wind Speed 24 mph    
Max Gust Speed 32 mph    
Visibility 10 miles    
Events      
T = Trace of Precipitation, MM = Missing Value Source: NWS Daily Summary

Daily Weather History Graph

Daily Weather History Graph

Search for Another Location

Airport:

Trip Planner

Search our weather history database for the weather conditions in past years. The results will help you decide how hot, cold, wet, or windy it might be!

Date:

Astronomy

Mar. 13, 2012 Rise Set
Actual Time 7:47 AM CDT 7:38 PM CDT
Civil Twilight 7:20 AM CDT 8:06 PM CDT
Nautical Twilight 6:48 AM CDT 8:37 PM CDT
Astronomical Twilight 6:16 AM CDT 9:10 PM CDT
Moon 1:14 AM CDT (3/13) 11:00 AM CDT (3/13)
Length of Visible Light 12h 45m
Length of Day
11h 51m
Waning Gibbous, 65% of the Moon is Illuminated
Mar 13
Waning Gibbous
Mar 14
Last Quarter
Mar 22
New
Mar 30
First Quarter
Apr 6
Full

Hourly Weather History & Observations

Time (CDT) Temp. Windchill Dew Point Humidity Pressure Visibility Wind Dir Wind Speed Gust Speed Precip Events Conditions
12:53 AM 51.1 °F - 34.0 °F 52% 29.93 in 10.0 mi South 5.8 mph - N/A   Clear
1:53 AM 41.0 °F 36.4 °F 34.0 °F 76% 29.93 in 10.0 mi ENE 6.9 mph - N/A   Clear
2:53 AM 39.9 °F - 33.1 °F 77% 29.93 in 10.0 mi Calm Calm - N/A   Clear
3:53 AM 39.9 °F - 33.1 °F 77% 29.93 in 10.0 mi Calm Calm - N/A   Clear
4:53 AM 37.9 °F - 32.0 °F 79% 29.92 in 10.0 mi Calm Calm - N/A   Clear
5:53 AM 42.1 °F - 33.1 °F 70% 29.91 in 10.0 mi Calm Calm - N/A   Clear
6:53 AM 44.1 °F 42.5 °F 34.0 °F 68% 29.92 in 10.0 mi SSE 3.5 mph - N/A   Clear
7:53 AM 39.0 °F - 32.0 °F 76% 29.94 in 10.0 mi Calm Calm - N/A   Clear
8:53 AM 46.9 °F - 34.0 °F 61% 29.94 in 10.0 mi South 5.8 mph - N/A   Clear
9:53 AM 54.0 °F - 37.9 °F 55% 29.94 in 10.0 mi South 8.1 mph - N/A   Clear
10:53 AM 61.0 °F - 44.1 °F 54% 29.92 in 10.0 mi South 10.4 mph - N/A   Clear
11:53 AM 69.1 °F - 44.1 °F 40% 29.89 in 10.0 mi North - - 0.11 in   Clear
12:53 PM 73.0 °F - 44.1 °F 35% 29.87 in - South 12.7 mph 20.7 mph N/A   Clear
1:03 PM 73.4 °F - 42.8 °F 33% 29.88 in 10.0 mi South 15.0 mph 21.9 mph N/A   Partly Cloudy
1:53 PM 75.9 °F - 41.0 °F 29% 29.84 in 10.0 mi South 15.0 mph 23.0 mph N/A   Clear
2:53 PM 78.1 °F - 39.0 °F 25% 29.80 in 10.0 mi South 16.1 mph 24.2 mph N/A   Clear
3:53 PM 79.0 °F - 36.0 °F 21% 29.76 in 10.0 mi South 18.4 mph 25.3 mph N/A   Clear
4:53 PM 79.0 °F - 36.0 °F 21% 29.74 in 10.0 mi South 17.3 mph 24.2 mph N/A   Clear
5:53 PM 78.1 °F - 35.1 °F 21% 29.73 in 10.0 mi South 19.6 mph 27.6 mph N/A   Clear
6:53 PM 73.9 °F - 37.0 °F 26% 29.73 in 10.0 mi South 11.5 mph - N/A   Clear
7:53 PM 69.1 °F - 39.9 °F 35% 29.74 in 10.0 mi SSE 8.1 mph - N/A   Clear
8:53 PM 64.9 °F - 42.1 °F 43% 29.74 in 10.0 mi SSE 12.7 mph - N/A   Clear
9:53 PM 62.1 °F - 45.0 °F 53% 29.75 in 10.0 mi South 11.5 mph - N/A   Clear
10:53 PM 63.0 °F - 39.9 °F 43% 29.74 in 10.0 mi South 10.4 mph - N/A   Clear
11:53 PM 59.0 °F - 42.1 °F 53% 29.73 in 10.0 mi South 11.5 mph - N/A   Clear